Location: Bosmont
(49.7318°N, 3.8587°E)
Time: 09:11:35
(UTC+00:00)

Cosmos 2278 Rocket - Pass Details

Date: 08 February 2023
Orbit: 841 x 845 km, 71.0° (Epoch: 23 March)

Event Time Altitude Azimuth Distance (km) Brightness Sun altitude
Rises 18:41:48 0° 331° (NNW) 3,417 5.7 -18.2°
Reaches altitude 10° 18:44:17 10° 334° (NNW) 2,477 4.9 -18.6°
Maximum altitude 18:49:58 72° 59° (ENE) 890 2.1 -19.5°
Enters shadow 18:53:32 23° 140° (SE) 1,707 3.4 -20.1°
